Year,Month,Day,Hour,Minute,Value (Times are PST for temperature in C)
2013,07,18,00,00,15.70
2013,07,18,00,01,15.70
2013,07,18,00,02,15.70
2013,07,18,00,03,15.70
2013,07,18,00,04,15.70
2013,07,18,00,05,15.70
2013,07,18,00,06,15.70
2013,07,18,00,07,15.60
2013,07,18,00,08,15.60
2013,07,18,00,09,15.60
2013,07,18,00,10,15.60
2013,07,18,00,11,15.60
2013,07,18,00,12,15.60
2013,07,18,00,13,15.60
2013,07,18,00,14,15.60
2013,07,18,00,15,15.60
2013,07,18,00,16,15.60
2013,07,18,00,17,15.60
2013,07,18,00,18,15.60
2013,07,18,00,19,15.60
2013,07,18,00,20,15.60
2013,07,18,00,21,15.60
2013,07,18,00,22,15.50
2013,07,18,00,23,15.50
2013,07,18,00,24,15.50
2013,07,18,00,25,15.50
2013,07,18,00,26,15.50
2013,07,18,00,27,15.50
2013,07,18,00,28,15.50
2013,07,18,00,29,15.50
2013,07,18,00,30,15.50
2013,07,18,00,31,15.50
2013,07,18,00,32,15.40
2013,07,18,00,33,15.40
2013,07,18,00,34,15.40
2013,07,18,00,35,15.40
2013,07,18,00,36,15.40
2013,07,18,00,37,15.40
2013,07,18,00,38,15.40
2013,07,18,00,39,15.40
2013,07,18,00,40,15.30
2013,07,18,00,41,15.30
2013,07,18,00,42,15.30
2013,07,18,00,43,15.30
2013,07,18,00,44,15.30
2013,07,18,00,45,15.30
2013,07,18,00,46,15.30
2013,07,18,00,47,15.30
2013,07,18,00,48,15.30
2013,07,18,00,49,15.30
2013,07,18,00,50,15.30
2013,07,18,00,51,15.30
2013,07,18,00,52,15.30
2013,07,18,00,53,15.30
2013,07,18,00,54,15.30
2013,07,18,00,55,15.30
2013,07,18,00,56,15.30
2013,07,18,00,57,15.30
2013,07,18,00,58,15.20
2013,07,18,00,59,15.20
2013,07,18,01,00,15.20
2013,07,18,01,01,15.20
2013,07,18,01,02,15.20
2013,07,18,01,03,15.20
2013,07,18,01,04,15.20
2013,07,18,01,05,15.20
2013,07,18,01,06,15.20
2013,07,18,01,07,15.20
2013,07,18,01,08,15.10
2013,07,18,01,09,15.10
2013,07,18,01,10,15.10
2013,07,18,01,11,15.10
2013,07,18,01,12,15.10
2013,07,18,01,13,15.10
2013,07,18,01,14,15.10
2013,07,18,01,15,15.10
2013,07,18,01,16,15.00
2013,07,18,01,17,15.00
2013,07,18,01,18,15.00
2013,07,18,01,19,15.00
2013,07,18,01,20,15.00
2013,07,18,01,21,15.00
2013,07,18,01,22,15.00
2013,07,18,01,23,15.00
2013,07,18,01,24,15.00
2013,07,18,01,25,15.00
2013,07,18,01,26,15.00
2013,07,18,01,27,14.90
2013,07,18,01,28,14.90
2013,07,18,01,29,14.90
2013,07,18,01,30,14.90
2013,07,18,01,31,14.90
2013,07,18,01,32,14.90
2013,07,18,01,33,14.90
2013,07,18,01,34,14.90
2013,07,18,01,35,14.90
2013,07,18,01,36,14.90
2013,07,18,01,37,14.90
2013,07,18,01,38,14.80
2013,07,18,01,39,14.80
2013,07,18,01,40,14.80
2013,07,18,01,41,14.80
2013,07,18,01,42,14.80
2013,07,18,01,43,14.80
2013,07,18,01,44,14.80
2013,07,18,01,45,14.80
2013,07,18,01,46,14.80
2013,07,18,01,47,14.80
2013,07,18,01,48,14.80
2013,07,18,01,49,14.80
2013,07,18,01,50,14.80
2013,07,18,01,51,14.80
2013,07,18,01,52,14.80
2013,07,18,01,53,14.80
2013,07,18,01,54,14.70
2013,07,18,01,55,14.70
2013,07,18,01,56,14.70
2013,07,18,01,57,14.70
2013,07,18,01,58,14.70
2013,07,18,01,59,14.70
2013,07,18,02,00,14.70
2013,07,18,02,01,14.70
2013,07,18,02,02,14.70
2013,07,18,02,03,14.70
2013,07,18,02,04,14.70
2013,07,18,02,05,14.60
2013,07,18,02,06,14.60
2013,07,18,02,07,14.60
2013,07,18,02,08,14.60
2013,07,18,02,09,14.60
2013,07,18,02,10,14.60
2013,07,18,02,11,14.60
2013,07,18,02,12,14.50
2013,07,18,02,13,14.50
2013,07,18,02,14,14.50
2013,07,18,02,15,14.50
2013,07,18,02,16,14.50
2013,07,18,02,17,14.50
2013,07,18,02,18,14.50
2013,07,18,02,19,14.50
2013,07,18,02,20,14.50
2013,07,18,02,21,14.50
2013,07,18,02,22,14.40
2013,07,18,02,23,14.40
2013,07,18,02,24,14.40
2013,07,18,02,25,14.40
2013,07,18,02,26,14.40
2013,07,18,02,27,14.40
2013,07,18,02,28,14.40
2013,07,18,02,29,14.40
2013,07,18,02,30,14.30
2013,07,18,02,31,14.30
2013,07,18,02,32,14.30
2013,07,18,02,33,14.30
2013,07,18,02,34,14.30
2013,07,18,02,35,14.30
2013,07,18,02,36,14.30
2013,07,18,02,37,14.30
2013,07,18,02,38,14.30
2013,07,18,02,39,14.30
2013,07,18,02,40,14.20
2013,07,18,02,41,14.20
2013,07,18,02,42,14.20
2013,07,18,02,43,14.20
2013,07,18,02,44,14.20
2013,07,18,02,45,14.20
2013,07,18,02,46,14.20
2013,07,18,02,47,14.20
2013,07,18,02,48,14.20
2013,07,18,02,49,14.20
2013,07,18,02,50,14.20
2013,07,18,02,51,14.20
2013,07,18,02,52,14.20
2013,07,18,02,53,14.20
2013,07,18,02,54,14.20
2013,07,18,02,55,14.20
2013,07,18,02,56,14.20
2013,07,18,02,57,14.20
2013,07,18,02,58,14.20
2013,07,18,02,59,14.20
2013,07,18,03,00,14.20
2013,07,18,03,01,14.20
2013,07,18,03,02,14.20
2013,07,18,03,03,14.10
2013,07,18,03,04,14.10
2013,07,18,03,05,14.10
2013,07,18,03,06,14.10
2013,07,18,03,07,14.10
2013,07,18,03,08,14.10
2013,07,18,03,09,14.10
2013,07,18,03,10,14.10
2013,07,18,03,11,14.10
2013,07,18,03,12,14.10
2013,07,18,03,13,14.10
2013,07,18,03,14,14.10
2013,07,18,03,15,14.10
2013,07,18,03,16,14.00
2013,07,18,03,17,14.00
2013,07,18,03,18,14.00
2013,07,18,03,19,14.00
2013,07,18,03,20,14.00
2013,07,18,03,21,14.00
2013,07,18,03,22,14.00
2013,07,18,03,23,14.00
2013,07,18,03,24,14.00
2013,07,18,03,25,14.00
2013,07,18,03,26,14.00
2013,07,18,03,27,13.90
2013,07,18,03,28,13.90
2013,07,18,03,29,13.90
2013,07,18,03,30,13.90
2013,07,18,03,31,13.90
2013,07,18,03,32,13.90
2013,07,18,03,33,13.90
2013,07,18,03,34,13.90
2013,07,18,03,35,13.90
2013,07,18,03,36,13.90
2013,07,18,03,37,13.90
2013,07,18,03,38,13.90
2013,07,18,03,39,13.80
2013,07,18,03,40,13.80
2013,07,18,03,41,13.80
2013,07,18,03,42,13.80
2013,07,18,03,43,13.80
2013,07,18,03,44,13.80
2013,07,18,03,45,13.80
2013,07,18,03,46,13.80
2013,07,18,03,47,13.70
2013,07,18,03,48,13.70
2013,07,18,03,49,13.70
2013,07,18,03,50,13.70
2013,07,18,03,51,13.70
2013,07,18,03,52,13.70
2013,07,18,03,53,13.70
2013,07,18,03,54,13.70
2013,07,18,03,55,13.70
2013,07,18,03,56,13.70
2013,07,18,03,57,13.70
2013,07,18,03,58,13.70
2013,07,18,03,59,13.70
2013,07,18,04,00,13.70
2013,07,18,04,01,13.70
2013,07,18,04,02,13.70
2013,07,18,04,03,13.70
2013,07,18,04,04,13.60
2013,07,18,04,05,13.60
2013,07,18,04,06,13.60
2013,07,18,04,07,13.60
2013,07,18,04,08,13.60
2013,07,18,04,09,13.60
2013,07,18,04,10,13.60
2013,07,18,04,11,13.60
2013,07,18,04,12,13.60
2013,07,18,04,13,13.60
2013,07,18,04,14,13.60
2013,07,18,04,15,13.60
2013,07,18,04,16,13.60
2013,07,18,04,17,13.60
2013,07,18,04,18,13.60
2013,07,18,04,19,13.60
2013,07,18,04,20,13.60
2013,07,18,04,21,13.50
2013,07,18,04,22,13.50
2013,07,18,04,23,13.50
2013,07,18,04,24,13.50
2013,07,18,04,25,13.50
2013,07,18,04,26,13.50
2013,07,18,04,27,13.50
2013,07,18,04,28,13.50
2013,07,18,04,29,13.50
2013,07,18,04,30,13.50
2013,07,18,04,31,13.40
2013,07,18,04,32,13.40
2013,07,18,04,33,13.40
2013,07,18,04,34,13.40
2013,07,18,04,35,13.40
2013,07,18,04,36,13.40
2013,07,18,04,37,13.40
2013,07,18,04,38,13.30
2013,07,18,04,39,13.30
2013,07,18,04,40,13.30
2013,07,18,04,41,13.30
2013,07,18,04,42,13.30
2013,07,18,04,43,13.30
2013,07,18,04,44,13.30
2013,07,18,04,45,13.30
2013,07,18,04,46,13.30
2013,07,18,04,47,13.30
2013,07,18,04,48,13.30
2013,07,18,04,49,13.30
2013,07,18,04,50,13.30
2013,07,18,04,51,13.30
2013,07,18,04,52,13.20
2013,07,18,04,53,13.20
2013,07,18,04,54,13.20
2013,07,18,04,55,13.20
2013,07,18,04,56,13.20
2013,07,18,04,57,13.20
2013,07,18,04,58,13.20
2013,07,18,04,59,13.20
2013,07,18,05,00,13.20
2013,07,18,05,01,13.10
2013,07,18,05,02,13.10
2013,07,18,05,03,13.10
2013,07,18,05,04,13.10
2013,07,18,05,05,13.10
2013,07,18,05,06,13.10
2013,07,18,05,07,13.10
2013,07,18,05,08,13.10
2013,07,18,05,09,13.10
2013,07,18,05,10,13.10
2013,07,18,05,11,13.00
2013,07,18,05,12,13.00
2013,07,18,05,13,13.00
2013,07,18,05,14,13.00
2013,07,18,05,15,13.00
2013,07,18,05,16,13.00
2013,07,18,05,17,12.90
2013,07,18,05,18,12.90
2013,07,18,05,19,12.90
2013,07,18,05,20,12.90
2013,07,18,05,21,12.80
2013,07,18,05,22,12.80
2013,07,18,05,23,12.80
2013,07,18,05,24,12.80
2013,07,18,05,25,12.80
2013,07,18,05,26,12.80
2013,07,18,05,27,12.80
2013,07,18,05,28,12.80
2013,07,18,05,29,12.80
2013,07,18,05,30,12.80
2013,07,18,05,31,12.80
2013,07,18,05,32,12.80
2013,07,18,05,33,12.80
2013,07,18,05,34,12.80
2013,07,18,05,35,12.80
2013,07,18,05,36,12.80
2013,07,18,05,37,12.80
2013,07,18,05,38,12.80
2013,07,18,05,39,12.80
2013,07,18,05,40,12.80
2013,07,18,05,41,12.80
2013,07,18,05,42,12.80
2013,07,18,05,43,12.80
2013,07,18,05,44,12.80
2013,07,18,05,45,12.80
2013,07,18,05,46,12.80
2013,07,18,05,47,12.90
2013,07,18,05,48,12.90
2013,07,18,05,49,12.90
2013,07,18,05,50,12.90
2013,07,18,05,51,12.90
2013,07,18,05,52,12.90
2013,07,18,05,53,12.90
2013,07,18,05,54,12.90
2013,07,18,05,55,12.90
2013,07,18,05,56,13.00
2013,07,18,05,57,13.00
2013,07,18,05,58,13.00
2013,07,18,05,59,13.00
2013,07,18,06,00,13.00
2013,07,18,06,01,13.00
2013,07,18,06,02,13.00
2013,07,18,06,03,13.00
2013,07,18,06,04,13.00
2013,07,18,06,05,12.90
2013,07,18,06,06,12.90
2013,07,18,06,07,13.00
2013,07,18,06,08,13.00
2013,07,18,06,09,13.00
2013,07,18,06,10,13.00
2013,07,18,06,11,13.00
2013,07,18,06,12,13.00
2013,07,18,06,13,13.00
2013,07,18,06,14,13.00
2013,07,18,06,15,13.00
2013,07,18,06,16,13.00
2013,07,18,06,17,13.10
2013,07,18,06,18,13.10
2013,07,18,06,19,13.10
2013,07,18,06,20,13.10
2013,07,18,06,21,13.10
2013,07,18,06,22,13.20
2013,07,18,06,23,13.20
2013,07,18,06,24,13.20
2013,07,18,06,25,13.30
2013,07,18,06,26,13.30
2013,07,18,06,27,13.30
2013,07,18,06,28,13.30
2013,07,18,06,29,13.40
2013,07,18,06,30,13.40
2013,07,18,06,31,13.50
2013,07,18,06,32,13.50
2013,07,18,06,33,13.60
2013,07,18,06,34,13.60
2013,07,18,06,35,13.60
2013,07,18,06,36,13.70
2013,07,18,06,37,13.70
2013,07,18,06,38,13.70
2013,07,18,06,39,13.70
2013,07,18,06,40,13.70
2013,07,18,06,41,13.70
2013,07,18,06,42,13.80
2013,07,18,06,43,13.80
2013,07,18,06,44,13.90
2013,07,18,06,45,13.90
2013,07,18,06,46,13.90
2013,07,18,06,47,14.00
2013,07,18,06,48,14.00
2013,07,18,06,49,14.00
2013,07,18,06,50,14.00
2013,07,18,06,51,14.10
2013,07,18,06,52,14.10
2013,07,18,06,53,14.20
2013,07,18,06,54,14.20
2013,07,18,06,55,14.20
2013,07,18,06,56,14.20
2013,07,18,06,57,14.20
2013,07,18,06,58,14.30
2013,07,18,06,59,14.40
2013,07,18,07,00,14.40
2013,07,18,07,01,14.50
2013,07,18,07,02,14.50
2013,07,18,07,03,14.60
2013,07,18,07,04,14.60
2013,07,18,07,05,14.70
2013,07,18,07,06,14.80
2013,07,18,07,07,14.80
2013,07,18,07,08,14.90
2013,07,18,07,09,14.90
2013,07,18,07,10,15.00
2013,07,18,07,11,15.00
2013,07,18,07,12,15.10
2013,07,18,07,13,15.10
2013,07,18,07,14,15.10
2013,07,18,07,15,15.10
2013,07,18,07,16,15.00
2013,07,18,07,17,15.10
2013,07,18,07,18,15.10
2013,07,18,07,19,15.20
2013,07,18,07,20,15.20
2013,07,18,07,21,15.30
2013,07,18,07,22,15.30
2013,07,18,07,23,15.30
2013,07,18,07,24,15.30
2013,07,18,07,25,15.40
2013,07,18,07,26,15.50
2013,07,18,07,27,15.50
2013,07,18,07,28,15.60
2013,07,18,07,29,15.70
2013,07,18,07,30,15.80
2013,07,18,07,31,15.80
2013,07,18,07,32,15.80
2013,07,18,07,33,15.80
2013,07,18,07,34,15.90
2013,07,18,07,35,15.90
2013,07,18,07,36,16.00
2013,07,18,07,37,16.10
2013,07,18,07,38,16.10
2013,07,18,07,39,16.00
2013,07,18,07,40,16.00
2013,07,18,07,41,16.10
2013,07,18,07,42,16.10
2013,07,18,07,43,16.10
2013,07,18,07,44,16.20
2013,07,18,07,45,16.30
2013,07,18,07,46,16.30
2013,07,18,07,47,16.30
2013,07,18,07,48,16.30
2013,07,18,07,49,16.40
2013,07,18,07,50,16.40
2013,07,18,07,51,16.40
2013,07,18,07,52,16.40
2013,07,18,07,53,16.40
2013,07,18,07,54,16.40
2013,07,18,07,55,16.40
2013,07,18,07,56,16.50
2013,07,18,07,57,16.60
2013,07,18,07,58,16.70
2013,07,18,07,59,16.70
2013,07,18,08,00,16.70
2013,07,18,08,01,16.70
2013,07,18,08,02,16.70
2013,07,18,08,03,16.70
2013,07,18,08,04,16.80
2013,07,18,08,05,16.80
2013,07,18,08,06,16.90
2013,07,18,08,07,17.00
2013,07,18,08,08,17.10
2013,07,18,08,09,17.10
2013,07,18,08,10,17.10
2013,07,18,08,11,17.10
2013,07,18,08,12,17.10
2013,07,18,08,13,17.20
2013,07,18,08,14,17.30
2013,07,18,08,15,17.30
2013,07,18,08,16,17.30
2013,07,18,08,17,17.40
2013,07,18,08,18,17.40
2013,07,18,08,19,17.50
2013,07,18,08,20,17.50
2013,07,18,08,21,17.60
2013,07,18,08,22,17.70
2013,07,18,08,23,17.70
2013,07,18,08,24,17.80
2013,07,18,08,25,17.90
2013,07,18,08,26,17.90
2013,07,18,08,27,18.00
2013,07,18,08,28,18.10
2013,07,18,08,29,18.10
2013,07,18,08,30,18.20
2013,07,18,08,31,18.20
2013,07,18,08,32,18.30
2013,07,18,08,33,18.30
2013,07,18,08,34,18.30
2013,07,18,08,35,18.30
2013,07,18,08,36,18.20
2013,07,18,08,37,18.30
2013,07,18,08,38,18.30
2013,07,18,08,39,18.30
2013,07,18,08,40,18.30
2013,07,18,08,41,18.20
2013,07,18,08,42,18.20
2013,07,18,08,43,18.10
2013,07,18,08,44,18.10
2013,07,18,08,45,17.90
2013,07,18,08,46,17.90
2013,07,18,08,47,18.00
2013,07,18,08,48,18.20
2013,07,18,08,49,18.20
2013,07,18,08,50,18.30
2013,07,18,08,51,18.30
2013,07,18,08,52,18.30
2013,07,18,08,53,18.30
2013,07,18,08,54,18.30
2013,07,18,08,55,18.20
2013,07,18,08,56,18.10
2013,07,18,08,57,18.00
2013,07,18,08,58,17.80
2013,07,18,08,59,17.80
2013,07,18,09,00,17.70
2013,07,18,09,01,17.60
2013,07,18,09,02,17.60
2013,07,18,09,03,17.70
2013,07,18,09,04,17.70
2013,07,18,09,05,17.80
2013,07,18,09,06,17.80
2013,07,18,09,07,17.90
2013,07,18,09,08,17.80
2013,07,18,09,09,17.80
2013,07,18,09,10,17.80
2013,07,18,09,11,17.70
2013,07,18,09,12,17.70
2013,07,18,09,13,17.70
2013,07,18,09,14,17.70
2013,07,18,09,15,17.70
2013,07,18,09,16,17.60
2013,07,18,09,17,17.60
2013,07,18,09,18,17.60
2013,07,18,09,19,17.60
2013,07,18,09,20,17.60
2013,07,18,09,21,17.60
2013,07,18,09,22,17.70
2013,07,18,09,23,17.80
2013,07,18,09,24,18.00
2013,07,18,09,25,18.10
2013,07,18,09,26,18.20
2013,07,18,09,27,18.30
2013,07,18,09,28,18.30
2013,07,18,09,29,18.40
2013,07,18,09,30,18.40
2013,07,18,09,31,18.40
2013,07,18,09,32,18.40
2013,07,18,09,33,18.40
2013,07,18,09,34,18.40
2013,07,18,09,35,18.40
2013,07,18,09,36,18.20
2013,07,18,09,37,18.10
2013,07,18,09,38,18.10
2013,07,18,09,39,18.00
2013,07,18,09,40,17.90
2013,07,18,09,41,17.90
2013,07,18,09,42,17.90
2013,07,18,09,43,18.00
2013,07,18,09,44,18.10
2013,07,18,09,45,18.30
2013,07,18,09,46,18.40
2013,07,18,09,47,18.50
2013,07,18,09,48,18.50
2013,07,18,09,49,18.50
2013,07,18,09,50,18.40
2013,07,18,09,51,18.40
2013,07,18,09,52,18.20
2013,07,18,09,53,18.20
2013,07,18,09,54,18.10
2013,07,18,09,55,18.10
2013,07,18,09,56,18.20
2013,07,18,09,57,18.20
2013,07,18,09,58,18.20
2013,07,18,09,59,18.20
2013,07,18,10,00,18.20
2013,07,18,10,01,18.20
2013,07,18,10,02,18.20
2013,07,18,10,03,18.10
2013,07,18,10,04,18.10
2013,07,18,10,05,18.20
2013,07,18,10,06,18.20
2013,07,18,10,07,18.30
2013,07,18,10,08,18.30
2013,07,18,10,09,18.40
2013,07,18,10,10,18.50
2013,07,18,10,11,18.50
2013,07,18,10,12,18.50
2013,07,18,10,13,18.50
2013,07,18,10,14,18.50
2013,07,18,10,15,18.30
2013,07,18,10,16,18.40
2013,07,18,10,17,18.40
2013,07,18,10,18,18.40
2013,07,18,10,19,18.50
2013,07,18,10,20,18.60
2013,07,18,10,21,18.60
2013,07,18,10,22,18.60
2013,07,18,10,23,18.60
2013,07,18,10,24,18.70
2013,07,18,10,25,18.70
2013,07,18,10,26,18.70
2013,07,18,10,27,18.70
2013,07,18,10,28,18.70
2013,07,18,10,29,18.70
2013,07,18,10,30,18.70
2013,07,18,10,31,18.70
2013,07,18,10,32,18.70
2013,07,18,10,33,18.70
2013,07,18,10,34,18.60
2013,07,18,10,35,18.60
2013,07,18,10,36,18.60
2013,07,18,10,37,18.60
2013,07,18,10,38,18.70
2013,07,18,10,39,18.80
2013,07,18,10,40,18.80
2013,07,18,10,41,18.90
2013,07,18,10,42,18.90
2013,07,18,10,43,19.10
2013,07,18,10,44,19.10
2013,07,18,10,45,19.20
2013,07,18,10,46,19.20
2013,07,18,10,47,19.20
2013,07,18,10,48,19.10
2013,07,18,10,49,19.00
2013,07,18,10,50,18.90
2013,07,18,10,51,19.00
2013,07,18,10,52,19.10
2013,07,18,10,53,19.10
2013,07,18,10,54,19.20
2013,07,18,10,55,19.40
2013,07,18,10,56,19.60
2013,07,18,10,57,19.70
2013,07,18,10,58,19.90
2013,07,18,10,59,20.10
2013,07,18,11,00,20.20
2013,07,18,11,01,20.20
2013,07,18,11,02,20.20
2013,07,18,11,03,20.10
2013,07,18,11,04,20.20
2013,07,18,11,05,20.20
2013,07,18,11,06,20.20
2013,07,18,11,07,20.20
2013,07,18,11,08,20.20
2013,07,18,11,09,20.20
2013,07,18,11,10,20.10
2013,07,18,11,11,20.00
2013,07,18,11,12,20.00
2013,07,18,11,13,19.90
2013,07,18,11,14,19.70
2013,07,18,11,15,19.80
2013,07,18,11,16,19.90
2013,07,18,11,17,19.90
2013,07,18,11,18,19.90
2013,07,18,11,19,19.90
2013,07,18,11,20,20.00
2013,07,18,11,21,20.00
2013,07,18,11,22,20.00
2013,07,18,11,23,20.10
2013,07,18,11,24,20.10
2013,07,18,11,25,20.10
2013,07,18,11,26,20.10
2013,07,18,11,27,20.20
2013,07,18,11,28,20.20
2013,07,18,11,29,20.20
2013,07,18,11,30,20.20
2013,07,18,11,31,20.10
2013,07,18,11,32,20.10
2013,07,18,11,33,20.20
2013,07,18,11,34,20.30
2013,07,18,11,35,20.30
2013,07,18,11,36,20.30
2013,07,18,11,37,20.30
2013,07,18,11,38,20.30
2013,07,18,11,39,20.30
2013,07,18,11,40,20.30
2013,07,18,11,41,20.20
2013,07,18,11,42,20.10
2013,07,18,11,43,20.00
2013,07,18,11,44,20.00
2013,07,18,11,45,20.10
2013,07,18,11,46,20.00
2013,07,18,11,47,20.00
2013,07,18,11,48,19.90
2013,07,18,11,49,19.90
2013,07,18,11,50,19.90
2013,07,18,11,51,20.00
2013,07,18,11,52,20.20
2013,07,18,11,53,20.40
2013,07,18,11,54,20.50
2013,07,18,11,55,20.70
2013,07,18,11,56,20.60
2013,07,18,11,57,20.50
2013,07,18,11,58,20.40
2013,07,18,11,59,20.30
2013,07,18,12,00,20.40
2013,07,18,12,01,20.30
2013,07,18,12,02,20.30
2013,07,18,12,03,20.20
2013,07,18,12,04,20.20
2013,07,18,12,05,20.20
2013,07,18,12,06,20.20
2013,07,18,12,07,20.20
2013,07,18,12,08,20.10
2013,07,18,12,09,20.10
2013,07,18,12,10,20.20
2013,07,18,12,11,20.10
2013,07,18,12,12,20.10
2013,07,18,12,13,20.10
2013,07,18,12,14,20.10
2013,07,18,12,15,20.20
2013,07,18,12,16,20.20
2013,07,18,12,17,20.20
2013,07,18,12,18,20.20
2013,07,18,12,19,20.20
2013,07,18,12,20,20.20
2013,07,18,12,21,20.30
2013,07,18,12,22,20.30
2013,07,18,12,23,20.30
2013,07,18,12,24,20.40
2013,07,18,12,25,20.50
2013,07,18,12,26,20.50
2013,07,18,12,27,20.50
2013,07,18,12,28,20.50
2013,07,18,12,29,20.50
2013,07,18,12,30,20.70
2013,07,18,12,31,20.90
2013,07,18,12,32,20.90
2013,07,18,12,33,20.90
2013,07,18,12,34,20.80
2013,07,18,12,35,20.70
2013,07,18,12,36,20.60
2013,07,18,12,37,20.70
2013,07,18,12,38,20.70
2013,07,18,12,39,20.80
2013,07,18,12,40,20.80
2013,07,18,12,41,20.90
2013,07,18,12,42,20.80
2013,07,18,12,43,20.80
2013,07,18,12,44,20.90
2013,07,18,12,45,21.00
2013,07,18,12,46,21.20
2013,07,18,12,47,21.20
2013,07,18,12,48,21.20
2013,07,18,12,49,21.20
2013,07,18,12,50,21.30
2013,07,18,12,51,21.30
2013,07,18,12,52,21.30
2013,07,18,12,53,21.10
2013,07,18,12,54,21.10
2013,07,18,12,55,21.10
2013,07,18,12,56,21.10
2013,07,18,12,57,21.20
2013,07,18,12,58,21.30
2013,07,18,12,59,21.30
2013,07,18,13,00,21.40
2013,07,18,13,01,21.50
2013,07,18,13,02,21.60
2013,07,18,13,03,21.60
2013,07,18,13,04,21.70
2013,07,18,13,05,21.70
2013,07,18,13,06,21.90
2013,07,18,13,07,21.90
2013,07,18,13,08,21.70
2013,07,18,13,09,21.60
2013,07,18,13,10,21.50
2013,07,18,13,11,21.40
2013,07,18,13,12,21.40
2013,07,18,13,13,21.50
2013,07,18,13,14,21.60
2013,07,18,13,15,21.60
2013,07,18,13,16,21.50
2013,07,18,13,17,21.40
2013,07,18,13,18,21.40
2013,07,18,13,19,21.30
2013,07,18,13,20,21.30
2013,07,18,13,21,21.30
2013,07,18,13,22,21.30
2013,07,18,13,23,21.40
2013,07,18,13,24,21.40
2013,07,18,13,25,21.60
2013,07,18,13,26,21.60
2013,07,18,13,27,21.70
2013,07,18,13,28,21.60
2013,07,18,13,29,21.60
2013,07,18,13,30,21.50
2013,07,18,13,31,21.40
2013,07,18,13,32,21.40
2013,07,18,13,33,21.50
2013,07,18,13,34,21.60
2013,07,18,13,35,21.80
2013,07,18,13,36,21.70
2013,07,18,13,37,21.60
2013,07,18,13,38,21.60
2013,07,18,13,39,21.60
2013,07,18,13,40,21.60
2013,07,18,13,41,21.60
2013,07,18,13,42,21.60
2013,07,18,13,43,21.60
2013,07,18,13,44,21.60
2013,07,18,13,45,21.60
2013,07,18,13,46,21.70
2013,07,18,13,47,21.80
2013,07,18,13,48,21.80
2013,07,18,13,49,21.90
2013,07,18,13,50,22.00
2013,07,18,13,51,22.00
2013,07,18,13,52,22.00
2013,07,18,13,53,21.90
2013,07,18,13,54,21.80
2013,07,18,13,55,22.00
2013,07,18,13,56,22.20
2013,07,18,13,57,22.20
2013,07,18,13,58,22.10
2013,07,18,13,59,22.00
2013,07,18,14,00,21.90
2013,07,18,14,01,22.00
2013,07,18,14,02,22.00
2013,07,18,14,03,22.20
2013,07,18,14,04,22.20
2013,07,18,14,05,22.10
2013,07,18,14,06,21.90
2013,07,18,14,07,21.80
2013,07,18,14,08,21.90
2013,07,18,14,09,21.80
2013,07,18,14,10,21.60
2013,07,18,14,11,21.50
2013,07,18,14,12,21.40
2013,07,18,14,13,21.40
2013,07,18,14,14,21.40
2013,07,18,14,15,21.50
2013,07,18,14,16,21.60
2013,07,18,14,17,21.60
2013,07,18,14,18,21.60
2013,07,18,14,19,21.60
2013,07,18,14,20,21.60
2013,07,18,14,21,21.60
2013,07,18,14,22,21.50
2013,07,18,14,23,21.50
2013,07,18,14,24,21.60
2013,07,18,14,25,21.50
2013,07,18,14,26,21.40
2013,07,18,14,27,21.40
2013,07,18,14,28,21.40
2013,07,18,14,29,21.40
2013,07,18,14,30,21.30
2013,07,18,14,31,21.40
2013,07,18,14,32,21.50
2013,07,18,14,33,21.60
2013,07,18,14,34,21.60
2013,07,18,14,35,21.60
2013,07,18,14,36,21.60
2013,07,18,14,37,21.60
2013,07,18,14,38,21.70
2013,07,18,14,39,21.90
2013,07,18,14,40,22.00
2013,07,18,14,41,22.00
2013,07,18,14,42,21.90
2013,07,18,14,43,21.90
2013,07,18,14,44,21.90
2013,07,18,14,45,21.90
2013,07,18,14,46,21.90
2013,07,18,14,47,22.00
2013,07,18,14,48,22.10
2013,07,18,14,49,22.20
2013,07,18,14,50,22.20
2013,07,18,14,51,22.10
2013,07,18,14,52,22.00
2013,07,18,14,53,22.00
2013,07,18,14,54,22.00
2013,07,18,14,55,22.00
2013,07,18,14,56,21.90
2013,07,18,14,57,22.00
2013,07,18,14,58,22.00
2013,07,18,14,59,22.00
2013,07,18,15,00,22.10
2013,07,18,15,01,22.10
2013,07,18,15,02,22.10
2013,07,18,15,03,22.10
2013,07,18,15,04,22.00
2013,07,18,15,05,22.10
2013,07,18,15,06,22.20
2013,07,18,15,07,22.30
2013,07,18,15,08,22.40
2013,07,18,15,09,22.50
2013,07,18,15,10,22.60
2013,07,18,15,11,22.60
2013,07,18,15,12,22.50
2013,07,18,15,13,22.50
2013,07,18,15,14,22.50
2013,07,18,15,15,22.60
2013,07,18,15,16,22.70
2013,07,18,15,17,22.80
2013,07,18,15,18,22.70
2013,07,18,15,19,22.70
2013,07,18,15,20,22.60
2013,07,18,15,21,22.60
2013,07,18,15,22,22.70
2013,07,18,15,23,22.90
2013,07,18,15,24,22.90
2013,07,18,15,25,23.00
2013,07,18,15,26,23.10
2013,07,18,15,27,23.10
2013,07,18,15,28,23.20
2013,07,18,15,29,23.10
2013,07,18,15,30,23.00
2013,07,18,15,31,22.90
2013,07,18,15,32,22.90
2013,07,18,15,33,23.10
2013,07,18,15,34,23.30
2013,07,18,15,35,23.40
2013,07,18,15,36,23.50
2013,07,18,15,37,23.70
2013,07,18,15,38,23.80
2013,07,18,15,39,23.80
2013,07,18,15,40,23.80
2013,07,18,15,41,23.60
2013,07,18,15,42,23.50
2013,07,18,15,43,23.40
2013,07,18,15,44,23.20
2013,07,18,15,45,23.20
2013,07,18,15,46,23.10
2013,07,18,15,47,22.90
2013,07,18,15,48,22.70
2013,07,18,15,49,22.60
2013,07,18,15,50,22.50
2013,07,18,15,51,22.40
2013,07,18,15,52,22.30
2013,07,18,15,53,22.10
2013,07,18,15,54,22.10
2013,07,18,15,55,22.20
2013,07,18,15,56,22.40
2013,07,18,15,57,22.50
2013,07,18,15,58,22.60
2013,07,18,15,59,22.70
2013,07,18,16,00,22.90
2013,07,18,16,01,23.00
2013,07,18,16,02,23.20
2013,07,18,16,03,23.20
2013,07,18,16,04,23.30
2013,07,18,16,05,23.40
2013,07,18,16,06,23.50
2013,07,18,16,07,23.60
2013,07,18,16,08,23.70
2013,07,18,16,09,23.70
2013,07,18,16,10,23.80
2013,07,18,16,11,24.00
2013,07,18,16,12,24.10
2013,07,18,16,13,24.30
2013,07,18,16,14,24.40
2013,07,18,16,15,24.30
2013,07,18,16,16,24.10
2013,07,18,16,17,24.10
2013,07,18,16,18,24.10
2013,07,18,16,19,24.00
2013,07,18,16,20,23.80
2013,07,18,16,21,23.70
2013,07,18,16,22,23.60
2013,07,18,16,23,23.70
2013,07,18,16,24,23.70
2013,07,18,16,25,23.80
2013,07,18,16,26,23.90
2013,07,18,16,27,24.00
2013,07,18,16,28,24.10
2013,07,18,16,29,24.10
2013,07,18,16,30,24.10
2013,07,18,16,31,24.10
2013,07,18,16,32,23.90
2013,07,18,16,33,23.70
2013,07,18,16,34,23.70
2013,07,18,16,35,23.80
2013,07,18,16,36,23.80
2013,07,18,16,37,23.90
2013,07,18,16,38,24.00
2013,07,18,16,39,24.10
2013,07,18,16,40,24.10
2013,07,18,16,41,24.20
2013,07,18,16,42,24.20
2013,07,18,16,43,24.30
2013,07,18,16,44,24.30
2013,07,18,16,45,24.40
2013,07,18,16,46,24.50
2013,07,18,16,47,24.50
2013,07,18,16,48,24.50
2013,07,18,16,49,24.60
2013,07,18,16,50,24.50
2013,07,18,16,51,24.20
2013,07,18,16,52,24.20
2013,07,18,16,53,24.20
2013,07,18,16,54,24.20
2013,07,18,16,55,24.30
2013,07,18,16,56,24.30
2013,07,18,16,57,24.40
2013,07,18,16,58,24.40
2013,07,18,16,59,24.40
2013,07,18,17,00,24.40
2013,07,18,17,01,24.40
2013,07,18,17,02,24.40
2013,07,18,17,03,24.40
2013,07,18,17,04,24.50
2013,07,18,17,05,24.40
2013,07,18,17,06,24.40
2013,07,18,17,07,24.30
2013,07,18,17,08,24.30
2013,07,18,17,09,24.10
2013,07,18,17,10,24.10
2013,07,18,17,11,24.00
2013,07,18,17,12,23.80
2013,07,18,17,13,23.70
2013,07,18,17,14,23.70
2013,07,18,17,15,23.80
2013,07,18,17,16,23.90
2013,07,18,17,17,24.00
2013,07,18,17,18,24.10
2013,07,18,17,19,24.10